When you browse on this site, cookies collect data to enhance your experience and personalize the content and advertising you see.
Visit our Privacy Policy to learn more. By continuing to use the site, you agree to this use of cookies and data.
  • en France
  • Liste des pays
  • À 7 jours
  • Température de l'eau
  • Carte météo
  • Widgets météo
  • user-avatar
    Se connecter

    Météo par heure à Korçё

    Ce jour, 2 Juin, Mardi

    Heure Température Précipitation Vent Pression Humidité
    00:00 +7°C° 0 mm 1 m/s 662 mmHg 92%
    01:00 +7°C° 0 mm 1 m/s 662 mmHg 92%
    02:00 +7°C° 0 mm 1 m/s 662 mmHg 91%
    03:00 +7°C° 0 mm 1 m/s 662 mmHg 91%
    04:00 +6°C° 0 mm 1 m/s 662 mmHg 91%
    05:00 +8°C° 0 mm 1 m/s 662 mmHg 85%
    06:00 +10°C° 0 mm 1 m/s 663 mmHg 79%
    07:00 +12°C° 0 mm 1 m/s 664 mmHg 73%
    08:00 +14°C° 0 mm 1 m/s 664 mmHg 66%
    09:00 +15°C° 0 mm 1 m/s 664 mmHg 60%
    10:00 +16°C° 0 mm 2 m/s 664 mmHg 53%
    11:00 +16°C° 0.2 mm 2 m/s 664 mmHg 55%
    12:00 +16°C° 0.2 mm 3 m/s 664 mmHg 57%
    13:00 +17°C° 0.2 mm 3 m/s 664 mmHg 58%
    14:00 +16°C° 0.2 mm 3 m/s 663 mmHg 60%
    15:00 +16°C° 0.2 mm 3 m/s 663 mmHg 61%
    16:00 +16°C° 0.2 mm 3 m/s 663 mmHg 63%
    17:00 +13°C° 0 mm 3 m/s 662 mmHg 70%
    18:00 +12°C° 0 mm 2 m/s 662 mmHg 78%
    19:00 +9°C° 0 mm 2 m/s 661 mmHg 85%
    20:00 +9°C° 0 mm 1 m/s 661 mmHg 87%
    21:00 +9°C° 0 mm 1 m/s 661 mmHg 89%
    22:00 +8°C° 0 mm 1 m/s 661 mmHg 91%
    23:00 +8°C° 0 mm 1 m/s 661 mmHg 89%

    Demain, 3 Juin, Mercredi

    Heure Température Précipitation Vent Pression Humidité
    00:00 +7°C° 0 mm 1 m/s 661 mmHg 87%
    01:00 +7°C° 0 mm 1 m/s 660 mmHg 85%
    02:00 +7°C° 0 mm 1 m/s 660 mmHg 85%
    03:00 +6°C° 0 mm 0 m/s 660 mmHg 85%
    04:00 +6°C° 0 mm 0 m/s 660 mmHg 84%
    05:00 +9°C° 0 mm 1 m/s 661 mmHg 79%
    06:00 +11°C° 0 mm 1 m/s 661 mmHg 75%
    07:00 +13°C° 0 mm 1 m/s 662 mmHg 70%
    08:00 +14°C° 0 mm 1 m/s 662 mmHg 64%
    09:00 +15°C° 0 mm 2 m/s 663 mmHg 59%
    10:00 +17°C° 0 mm 2 m/s 663 mmHg 53%
    11:00 +17°C° 0.2 mm 3 m/s 663 mmHg 54%
    12:00 +17°C° 0.2 mm 3 m/s 663 mmHg 56%
    13:00 +17°C° 0.2 mm 4 m/s 663 mmHg 57%
    14:00 +17°C° 0.2 mm 3 m/s 663 mmHg 58%
    15:00 +17°C° 0.2 mm 3 m/s 663 mmHg 59%
    16:00 +16°C° 0.2 mm 3 m/s 663 mmHg 60%
    17:00 +15°C° 0 mm 2 m/s 662 mmHg 66%
    18:00 +13°C° 0 mm 2 m/s 662 mmHg 72%
    19:00 +11°C° 0 mm 1 m/s 662 mmHg 78%
    20:00 +10°C° 0 mm 1 m/s 662 mmHg 80%
    21:00 +9°C° 0 mm 1 m/s 662 mmHg 81%
    22:00 +9°C° 0 mm 1 m/s 662 mmHg 83%
    23:00 +8°C° 0 mm 1 m/s 662 mmHg 83%

    Après-demain, 4 Juin, Jeudi

    Heure Température Précipitation Vent Pression Humidité
    00:00 +8°C° 0 mm 1 m/s 662 mmHg 83%
    01:00 +8°C° 0 mm 1 m/s 662 mmHg 83%
    02:00 +8°C° 0 mm 1 m/s 662 mmHg 83%
    03:00 +8°C° 0 mm 1 m/s 662 mmHg 83%
    04:00 +8°C° 0 mm 1 m/s 662 mmHg 83%
    05:00 +10°C° 0 mm 1 m/s 662 mmHg 77%
    06:00 +12°C° 0 mm 1 m/s 663 mmHg 70%
    07:00 +14°C° 0 mm 1 m/s 664 mmHg 63%
    08:00 +15°C° 0 mm 1 m/s 664 mmHg 59%
    09:00 +17°C° 0 mm 2 m/s 665 mmHg 56%
    10:00 +18°C° 0 mm 2 m/s 665 mmHg 52%
    11:00 +19°C° 0 mm 2 m/s 666 mmHg 51%
    12:00 +19°C° 0 mm 2 m/s 666 mmHg 50%
    13:00 +20°C° 0 mm 3 m/s 666 mmHg 49%
    14:00 +20°C° 0 mm 3 m/s 666 mmHg 51%
    15:00 +19°C° 0 mm 3 m/s 666 mmHg 52%
    16:00 +19°C° 0 mm 3 m/s 666 mmHg 53%
    17:00 +17°C° 0 mm 3 m/s 665 mmHg 62%
    18:00 +15°C° 0 mm 2 m/s 665 mmHg 70%
    19:00 +13°C° 0 mm 2 m/s 664 mmHg 79%
    20:00 +12°C° 0 mm 2 m/s 664 mmHg 81%
    21:00 +10°C° 0 mm 2 m/s 664 mmHg 84%
    22:00 +9°C° 0 mm 2 m/s 664 mmHg 86%
    23:00 +9°C° 0 mm 2 m/s 664 mmHg 87%

    5 Juin, Vendredi

    Heure Température Précipitation Vent Pression Humidité
    00:00 +9°C° 0 mm 2 m/s 664 mmHg 87%
    01:00 +9°C° 0 mm 2 m/s 663 mmHg 88%
    02:00 +9°C° 0 mm 2 m/s 663 mmHg 87%
    03:00 +8°C° 0 mm 2 m/s 663 mmHg 85%
    04:00 +8°C° 0 mm 2 m/s 663 mmHg 84%
    05:00 +10°C° 0 mm 2 m/s 663 mmHg 78%
    06:00 +13°C° 0 mm 2 m/s 664 mmHg 71%
    07:00 +14°C° 0 mm 2 m/s 664 mmHg 64%
    08:00 +15°C° 0.1 mm 2 m/s 665 mmHg 61%
    09:00 +16°C° 0.1 mm 2 m/s 665 mmHg 58%
    10:00 +16°C° 0.1 mm 2 m/s 665 mmHg 55%
    11:00 +17°C° 0 mm 3 m/s 665 mmHg 54%
    12:00 +18°C° 0 mm 3 m/s 665 mmHg 52%
    13:00 +19°C° 0 mm 4 m/s 664 mmHg 50%
    14:00 +18°C° 0.1 mm 4 m/s 664 mmHg 52%
    15:00 +18°C° 0.1 mm 4 m/s 663 mmHg 55%
    16:00 +17°C° 0.1 mm 4 m/s 663 mmHg 57%
    17:00 +16°C° 0 mm 3 m/s 662 mmHg 61%
    18:00 +15°C° 0 mm 2 m/s 662 mmHg 65%
    19:00 +14°C° 0 mm 2 m/s 662 mmHg 69%
    20:00 +13°C° 0.2 mm 1 m/s 662 mmHg 72%
    21:00 +12°C° 0.2 mm 1 m/s 661 mmHg 74%
    22:00 +12°C° 0.2 mm 1 m/s 661 mmHg 77%
    23:00 +12°C° 0.3 mm 1 m/s 661 mmHg 79%

    6 Juin, Samedi

    Heure Température Précipitation Vent Pression Humidité
    00:00 +11°C° 0.3 mm 1 m/s 661 mmHg 81%
    01:00 +10°C° 0.3 mm 2 m/s 660 mmHg 84%
    02:00 +10°C° 2.1 mm 2 m/s 660 mmHg 87%
    03:00 +10°C° 2.1 mm 2 m/s 660 mmHg 90%
    04:00 +9°C° 2.1 mm 2 m/s 660 mmHg 94%
    05:00 +11°C° 0.3 mm 1 m/s 661 mmHg 90%
    06:00 +12°C° 0.3 mm 1 m/s 661 mmHg 87%
    07:00 +13°C° 0.3 mm 1 m/s 662 mmHg 84%
    08:00 +13°C° 0.3 mm 1 m/s 662 mmHg 83%
    09:00 +14°C° 0.3 mm 1 m/s 663 mmHg 82%
    10:00 +15°C° 0.3 mm 1 m/s 663 mmHg 81%
    11:00 +16°C° 0.4 mm 1 m/s 664 mmHg 76%
    12:00 +17°C° 0.4 mm 2 m/s 664 mmHg 71%
    13:00 +19°C° 0.4 mm 2 m/s 664 mmHg 66%
    14:00 +18°C° 0.2 mm 2 m/s 664 mmHg 68%
    15:00 +18°C° 0.2 mm 2 m/s 664 mmHg 70%
    16:00 +18°C° 0.2 mm 2 m/s 664 mmHg 72%
    17:00 +16°C° 0 mm 2 m/s 664 mmHg 79%
    18:00 +15°C° 0 mm 1 m/s 663 mmHg 85%
    19:00 +13°C° 0 mm 1 m/s 663 mmHg 91%
    20:00 +13°C° 0 mm 1 m/s 664 mmHg 92%
    21:00 +12°C° 0 mm 1 m/s 664 mmHg 93%
    22:00 +10°C° 0 mm 0 m/s 664 mmHg 95%
    23:00 +10°C° 0 mm 0 m/s 664 mmHg 94%

    7 Juin, Dimanche

    Heure Température Précipitation Vent Pression Humidité
    00:00 +10°C° 0 mm 0 m/s 664 mmHg 94%
    01:00 +10°C° 0 mm 0 m/s 664 mmHg 93%
    02:00 +9°C° 0 mm 0 m/s 664 mmHg 92%
    03:00 +9°C° 0 mm 0 m/s 664 mmHg 92%
    04:00 +9°C° 0 mm 0 m/s 664 mmHg 91%
    05:00 +11°C° 0 mm 0 m/s 664 mmHg 85%
    06:00 +12°C° 0 mm 0 m/s 665 mmHg 79%
    07:00 +14°C° 0 mm 0 m/s 666 mmHg 73%
    08:00 +18°C° 0 mm 1 m/s 666 mmHg 66%
    09:00 +20°C° 0 mm 1 m/s 667 mmHg 58%
    10:00 +21°C° 0 mm 1 m/s 667 mmHg 50%
    11:00 +21°C° 0 mm 2 m/s 667 mmHg 50%
    12:00 +21°C° 0 mm 2 m/s 667 mmHg 50%
    13:00 +22°C° 0 mm 3 m/s 667 mmHg 51%
    14:00 +21°C° 0 mm 3 m/s 667 mmHg 54%
    15:00 +21°C° 0 mm 3 m/s 667 mmHg 57%
    16:00 +20°C° 0 mm 3 m/s 667 mmHg 60%
    17:00 +19°C° 0 mm 2 m/s 666 mmHg 68%
    18:00 +17°C° 0 mm 2 m/s 666 mmHg 77%
    19:00 +15°C° 0 mm 1 m/s 666 mmHg 86%
    20:00 +14°C° 0 mm 1 m/s 666 mmHg 87%
    21:00 +14°C° 0 mm 1 m/s 666 mmHg 88%
    22:00 +12°C° 0 mm 0 m/s 666 mmHg 90%
    23:00 +12°C° 0 mm 0 m/s 666 mmHg 89%
    Voir plus